Back to catalog

ATLAS 5 CENTAUR DEB

AliveHEO
NORAD 46848·DEBRIS·🇺🇸 United States

Launched Oct 17, 2018 from Cape Canaveral Space Force Station

Loading…

Next Passes (next 24 hours)

TLE

FreshSource: Space-Track

Epoch: Sep 13, 2026, 14:39 UTC

1 46848U 18079DD  26256.61088814 -.00000150  00000-0  00000-0 0  9999
2 46848  13.3805  43.9347 4425567 292.5757  27.1498  1.79131134 38374

Track ATLAS 5 CENTAUR DEB in real time with AllMySat

Download on the App Store